Wind_Speed
14 13 12 12 12 12 12 12 13 13 15 16 16 16 16 17 18 19 20 21 22 23 23 24 25 25 26 26 26 27 27 27 27 27 27 27 28 27 27 27 28 28
14 13 12 11 11 12 12 12 13 14 15 15 16 17 17 18 19 20 21 22 23 24 25 26 26 27 27 27 28 29 29 29 29 29 29 29 29 29 29 29 29 30
13 12 11 11 11 11 12 12 13 14 15 16 17 18 19 20 21 22 23 24 25 26 26 27 27 28 29 29 30 31 31 31 30 30 30 30 31 31 31 32 32 32
13 12 12 11 11 11 12 12 14 15 16 17 18 19 20 21 23 24 25 25 26 27 27 28 29 30 31 32 32 33 33 33 32 32 32 32 32 33 33 33 34 34
13 12 12 12 11 11 12 13 15 16 17 18 19 20 22 23 24 25 26 27 28 29 30 31 32 32 33 34 34 34 34 34 34 34 34 33 34 35 35 35 35 35
13 13 12 12 12 12 13 14 16 17 18 19 20 22 23 24 25 26 28 29 30 31 32 33 34 34 35 35 35 35 35 35 36 36 36 36 36 37 37 37 37 36
13 13 13 12 12 13 14 15 17 18 19 20 21 23 24 25 27 28 29 30 31 32 33 34 34 35 35 36 36 36 36 37 37 37 38 39 39 39 39 39 38 37
13 13 13 13 13 14 15 16 18 19 20 21 23 24 25 26 28 29 30 31 32 33 33 34 34 35 35 36 36 36 36 37 37 38 38 39 40 40 40 40 39 38
13 14 14 14 14 15 16 17 19 20 21 23 24 25 26 28 29 30 31 32 32 32 33 33 33 34 34 35 35 35 35 35 36 37 37 38 38 39 39 40 40 39
14 15 15 15 15 16 17 19 20 21 22 23 25 26 28 29 30 30 30 30 30 30 31 31 31 32 32 33 34 34 35 35 35 36 37 37 38 38 38 39 39 39
16 16 16 16 16 17 18 19 20 21 23 24 26 27 28 28 28 28 28 28 29 29 30 30 30 31 31 32 33 34 34 35 35 36 36 37 38 38 38 39 38 39
16 16 16 16 16 17 18 19 21 22 23 24 25 25 25 26 26 26 27 28 28 29 29 29 29 29 30 31 31 32 32 33 33 34 35 35 36 37 37 38 38 38
17 17 16 16 16 17 18 20 21 21 22 22 23 24 24 25 25 25 26 26 26 26 26 26 26 26 27 27 28 29 29 30 31 31 32 32 34 35 35 36 36 37
17 16 15 15 16 17 18 18 19 19 20 21 22 22 22 23 22 22 22 22 22 23 23 24 24 24 24 24 25 27 27 29 30 30 31 31 32 33 34 35 35 35
16 15 14 15 16 16 16 16 17 18 19 19 20 20 19 19 18 18 18 19 20 21 21 23 24 25 26 26 26 27 28 30 31 32 32 33 33 34 34 35 36 36
14 14 14 13 13 14 14 15 16 17 17 16 16 16 15 15 15 16 17 18 19 20 22 23 25 26 28 29 30 30 31 31 32 33 34 35 35 35 35 36 36 37
12 12 11 11 12 12 13 14 14 13 13 13 13 13 13 14 15 16 18 19 21 22 24 25 27 28 30 31 32 33 34 34 34 35 35 36 37 37 37 37 37 38
10 9 9 10 10 11 11 10 10 10 10 10 11 12 13 15 17 18 20 22 23 25 26 27 29 30 31 33 34 35 36 37 37 37 38 38 38 39 39 40 40 39
7 7 8 8 8 8 7 7 8 8 9 10 12 14 16 18 19 21 22 24 26 27 28 30 31 32 33 34 35 36 37 38 38 39 39 40 40 40 41 41 41 41
5 6 6 6 5 5 5 6 7 8 10 12 14 16 18 19 21 23 24 26 27 29 30 31 32 33 34 35 36 37 38 39 40 40 41 41 42 42 42 43 43 43
3 3 3 3 3 4 6 7 8 10 12 14 15 17 19 21 22 24 26 27 29 30 32 33 34 35 35 36 37 38 39 40 41 42 42 42 42 43 43 43 44 44
1 2 3 4 5 6 7 8 10 12 13 15 17 18 20 22 23 25 26 28 29 31 32 33 35 36 37 38 39 40 41 41 42 43 43 43 42 42 42 43 43 44
2 4 5 5 6 6 7 9 10 12 14 15 17 19 21 22 24 25 27 28 29 31 32 34 35 37 38 40 41 42 42 43 43 43 43 43 42 42 42 42 42 43
5 5 5 5 6 6 7 9 11 13 14 16 18 20 21 23 25 26 27 28 30 31 33 34 36 38 39 40 42 43 44 44 44 44 43 43 41 41 41 41 41 42
5 4 4 4 5 6 8 10 12 14 15 17 19 20 22 23 25 26 27 28 30 31 33 34 36 38 39 41 42 43 44 45 45 44 43 42 42 41 41 41 42 42
3 3 4 5 6 7 9 11 13 14 16 17 18 20 21 23 24 25 27 28 30 31 33 34 36 38 40 41 43 44 44 44 44 44 43 42 42 42 42 43 43 43
Wind_Direction
278 284 289 293 295 296 297 297 298 299 300 301 302 301 300 299 299 299 300 300 301 301 301 302 303 304 305 306 307 307 307 308 308 307 306 305 304 304 304 305 306 308
276 280 284 287 288 290 293 296 299 301 302 302 302 301 299 299 298 299 299 300 300 301 302 303 303 304 305 305 305 304 304 304 304 304 303 302 302 301 301 302 304 306
271 276 279 283 286 289 294 298 300 302 302 302 301 301 300 299 299 299 299 300 300 301 302 303 304 304 305 306 306 305 303 302 301 300 300 299 299 298 299 299 301 302
271 277 281 284 287 291 297 299 301 302 302 303 302 302 301 301 300 300 300 301 302 303 303 304 304 304 305 306 306 306 304 303 301 300 298 297 297 297 296 297 298 299
271 276 279 282 285 292 297 299 300 302 303 303 303 303 303 303 303 302 302 302 303 303 303 303 303 303 304 305 306 306 305 304 303 301 299 297 296 296 296 296 296 297
267 272 275 279 285 291 295 298 300 302 303 304 304 304 304 304 303 302 302 301 301 301 301 301 302 302 303 304 305 305 304 303 302 301 300 299 297 297 296 296 296 296
266 271 276 282 288 293 296 298 300 301 301 302 302 303 303 302 301 301 300 300 300 301 301 301 302 302 302 303 303 303 302 301 301 300 299 299 299 298 297 297 297 296
267 272 276 282 287 292 296 297 298 299 300 300 300 301 301 300 301 301 301 301 301 302 302 302 302 302 301 301 301 301 301 300 300 299 299 298 299 298 298 298 298 297
269 272 276 280 285 290 293 294 295 297 298 299 300 301 302 302 303 303 303 303 304 304 304 304 304 303 303 303 302 302 301 301 300 299 299 298 298 298 298 298 298 298
272 274 276 281 285 289 291 293 296 298 300 301 302 303 304 305 306 306 306 306 306 306 306 306 305 305 304 304 303 303 302 301 300 299 299 298 298 297 297 298 298 298
273 274 278 282 287 290 293 297 299 302 304 305 306 307 308 309 309 309 309 309 309 308 308 307 307 307 307 306 306 306 305 305 304 302 301 301 300 299 298 297 297 297
274 277 282 286 291 296 299 302 304 306 308 309 311 312 312 313 313 313 313 312 312 312 312 312 313 313 313 313 313 313 312 311 310 308 307 305 303 302 301 300 299 297
278 281 287 292 299 303 305 307 309 311 313 315 316 317 317 317 317 317 317 317 318 319 319 320 321 321 322 321 320 319 318 316 315 313 312 311 309 308 306 304 303 301
281 287 295 302 306 308 310 313 315 318 319 320 320 320 320 321 322 323 325 326 328 329 329 330 330 330 329 328 326 325 324 322 321 320 318 317 315 313 312 310 308 307
287 298 306 311 312 315 318 321 323 323 323 323 324 325 327 329 332 334 337 338 339 339 339 339 338 337 335 334 333 333 331 330 328 326 324 321 319 317 316 314 312 310
300 309 314 317 320 323 326 327 327 327 327 329 332 335 338 342 345 348 348 348 347 347 346 345 344 343 342 340 339 338 336 335 332 330 328 325 323 320 318 316 314 313
311 316 320 324 327 329 330 330 331 333 337 343 347 349 352 355 357 356 353 352 351 349 349 348 347 346 345 344 343 341 340 338 336 334 331 328 326 323 321 319 317 314
316 322 326 330 333 335 335 337 342 349 355 359 1 1 2 1 360 357 355 354 353 352 351 350 349 349 348 347 345 344 342 340 338 336 334 331 329 326 324 321 318 316
322 327 332 337 340 341 345 356 5 11 12 10 8 5 4 2 360 359 358 356 355 354 353 352 352 351 350 349 347 345 344 342 340 338 336 334 331 329 326 323 320 318
325 331 342 350 354 360 15 24 24 22 17 13 9 7 4 3 1 0 360 358 356 356 355 354 352 351 350 350 348 347 345 344 342 340 338 336 334 332 329 327 324 321
325 346 10 27 37 40 38 33 24 19 15 10 7 5 4 2 1 1 360 359 358 356 355 354 352 351 351 350 349 348 347 345 344 342 340 338 336 334 332 330 327 325
357 60 74 71 60 47 33 24 18 14 10 7 5 5 4 2 1 360 359 358 357 356 355 354 353 352 351 350 350 349 348 347 345 343 341 340 338 336 334 333 331 328
105 96 89 74 57 39 24 15 12 9 7 5 5 4 2 0 359 358 357 356 355 355 355 354 354 353 352 351 351 350 349 348 346 344 342 341 339 338 337 336 335 333
116 101 84 65 46 29 13 6 6 6 4 3 3 1 360 358 357 356 355 354 354 355 356 356 355 354 353 352 351 350 350 348 347 345 343 341 341 340 340 339 338 336
114 94 71 47 28 13 2 360 1 2 2 1 1 359 357 356 355 354 353 354 354 355 356 356 355 354 353 353 352 351 351 349 347 346 344 343 342 343 342 342 340 338
106 73 45 21 9 1 356 356 358 359 359 359 358 356 355 354 353 352 353 354 354 355 355 356 355 355 354 354 353 353 352 350 348 346 345 345 345 345 344 343 341 339
Height
3154 3154 3153 3153 3152 3152 3151 3151 3150 3150 3149 3148 3147 3147 3146 3145 3144 3143 3143 3142 3141 3140 3139 3138 3137 3136 3134 3133 3131 3130 3129 3127 3126 3124 3123 3121 3120 3119 3118 3116 3115 3114
3153 3153 3152 3152 3151 3150 3150 3149 3149 3148 3147 3147 3146 3145 3144 3144 3143 3142 3141 3140 3139 3138 3137 3135 3134 3133 3131 3130 3129 3127 3126 3125 3123 3122 3120 3119 3117 3116 3114 3113 3112 3111
3151 3151 3150 3150 3149 3149 3148 3148 3147 3146 3146 3145 3144 3144 3143 3142 3141 3140 3139 3137 3136 3135 3134 3133 3131 3130 3128 3127 3125 3124 3123 3121 3120 3119 3117 3115 3114 3113 3111 3110 3109 3107
3149 3149 3149 3148 3148 3147 3147 3146 3145 3145 3144 3143 3143 3142 3141 3140 3138 3137 3136 3135 3134 3133 3131 3130 3128 3127 3125 3124 3122 3120 3119 3117 3116 3115 3114 3112 3110 3109 3108 3106 3105 3104
3148 3147 3147 3147 3146 3146 3145 3144 3144 3143 3142 3142 3141 3140 3139 3138 3136 3135 3134 3132 3131 3130 3128 3127 3125 3124 3122 3120 3118 3117 3115 3114 3112 3111 3109 3108 3106 3105 3103 3102 3101 3100
3146 3146 3146 3145 3145 3144 3143 3143 3142 3141 3140 3139 3139 3138 3137 3135 3134 3133 3131 3130 3129 3127 3126 3124 3122 3120 3119 3117 3115 3113 3112 3110 3108 3107 3105 3104 3102 3100 3099 3098 3097 3096
3145 3144 3144 3143 3143 3142 3141 3141 3140 3139 3138 3137 3137 3136 3135 3133 3132 3131 3129 3128 3126 3124 3123 3121 3119 3117 3115 3114 3112 3110 3108 3106 3104 3103 3101 3099 3097 3096 3094 3092 3091 3090
3143 3142 3142 3141 3140 3140 3139 3138 3138 3137 3136 3135 3134 3133 3132 3131 3129 3128 3126 3125 3123 3121 3119 3117 3116 3114 3112 3110 3108 3106 3104 3102 3100 3098 3097 3095 3093 3091 3089 3087 3086 3085
3141 3140 3140 3139 3138 3138 3137 3136 3136 3135 3134 3133 3132 3131 3129 3128 3127 3125 3123 3121 3120 3118 3116 3114 3112 3110 3108 3106 3104 3102 3101 3099 3097 3095 3092 3091 3089 3087 3085 3083 3081 3080
3139 3139 3138 3137 3137 3136 3135 3135 3134 3133 3132 3131 3130 3128 3127 3125 3123 3122 3120 3118 3116 3115 3113 3111 3109 3107 3105 3102 3100 3098 3097 3095 3093 3091 3088 3086 3084 3082 3080 3078 3076 3074
3137 3137 3136 3135 3135 3134 3133 3133 3132 3131 3130 3128 3127 3125 3124 3122 3121 3119 3117 3115 3113 3112 3110 3108 3106 3104 3101 3099 3097 3094 3092 3090 3088 3086 3084 3082 3079 3077 3075 3073 3072 3070
3136 3135 3135 3134 3133 3132 3132 3131 3130 3129 3127 3126 3124 3123 3121 3120 3118 3116 3114 3112 3110 3108 3106 3104 3102 3100 3098 3096 3093 3091 3089 3086 3084 3082 3080 3077 3075 3073 3071 3069 3067 3065
3134 3133 3133 3132 3131 3130 3130 3129 3128 3126 3125 3123 3122 3120 3119 3117 3115 3114 3112 3110 3108 3106 3104 3101 3100 3098 3096 3093 3091 3088 3086 3083 3081 3079 3076 3074 3071 3069 3066 3064 3062 3060
3132 3132 3131 3130 3129 3128 3128 3127 3125 3124 3123 3121 3120 3118 3117 3115 3114 3112 3110 3108 3106 3104 3101 3099 3097 3095 3094 3092 3089 3086 3083 3080 3078 3075 3073 3070 3068 3065 3062 3060 3058 3056
3130 3129 3128 3128 3127 3126 3126 3125 3124 3122 3121 3120 3118 3117 3115 3114 3112 3110 3108 3106 3104 3102 3100 3098 3096 3093 3091 3089 3086 3084 3081 3077 3074 3071 3069 3066 3064 3061 3059 3056 3053 3051
3128 3127 3126 3126 3125 3125 3124 3123 3122 3121 3120 3118 3117 3116 3114 3113 3111 3110 3108 3106 3104 3101 3099 3097 3094 3091 3088 3085 3083 3080 3077 3075 3072 3069 3065 3062 3060 3057 3055 3052 3050 3047
3126 3125 3125 3124 3124 3123 3123 3122 3121 3120 3118 3117 3116 3115 3114 3112 3111 3109 3107 3105 3103 3100 3098 3095 3092 3089 3086 3083 3080 3077 3074 3071 3069 3066 3062 3059 3056 3053 3050 3048 3045 3043
3124 3124 3124 3123 3123 3122 3122 3121 3120 3119 3118 3117 3116 3114 3113 3111 3109 3108 3105 3103 3101 3098 3096 3093 3090 3087 3084 3081 3078 3075 3071 3068 3065 3062 3059 3056 3053 3049 3046 3042 3040 3037
3123 3123 3123 3122 3122 3121 3121 3120 3119 3119 3118 3116 3115 3113 3112 3110 3108 3106 3104 3101 3099 3096 3094 3091 3088 3085 3082 3079 3076 3073 3069 3066 3062 3059 3055 3052 3049 3045 3042 3038 3035 3032
3122 3122 3122 3122 3121 3121 3120 3120 3119 3118 3117 3116 3114 3112 3110 3109 3106 3104 3102 3100 3097 3094 3091 3089 3086 3083 3081 3078 3075 3071 3067 3064 3060 3056 3052 3049 3045 3041 3037 3033 3030 3026
3121 3121 3121 3121 3121 3121 3120 3119 3118 3117 3116 3115 3113 3111 3109 3107 3105 3103 3100 3098 3095 3092 3090 3087 3084 3081 3079 3076 3072 3069 3065 3062 3058 3054 3050 3046 3042 3038 3033 3029 3025 3022
3121 3121 3121 3121 3121 3120 3119 3118 3117 3116 3115 3114 3112 3110 3108 3106 3104 3101 3099 3096 3094 3091 3089 3086 3083 3079 3076 3073 3070 3066 3063 3059 3055 3051 3047 3043 3039 3035 3031 3026 3022 3018
3120 3120 3121 3121 3120 3120 3119 3118 3117 3116 3114 3113 3111 3109 3107 3105 3102 3100 3098 3095 3093 3090 3087 3084 3081 3078 3074 3070 3067 3063 3060 3056 3052 3048 3044 3040 3036 3032 3028 3024 3019 3015
3120 3120 3120 3120 3120 3119 3118 3117 3116 3115 3113 3112 3110 3108 3106 3103 3101 3099 3097 3094 3092 3089 3086 3083 3079 3076 3072 3068 3065 3061 3057 3053 3049 3045 3041 3037 3033 3030 3026 3022 3017 3013
3120 3120 3120 3120 3119 3119 3118 3116 3115 3114 3112 3110 3109 3107 3105 3103 3100 3098 3096 3093 3090 3087 3085 3082 3078 3075 3071 3067 3063 3059 3054 3050 3046 3042 3038 3034 3030 3026 3023 3019 3015 3011
3120 3120 3120 3119 3119 3118 3117 3115 3114 3113 3111 3110 3108 3106 3104 3102 3100 3097 3095 3092 3089 3086 3083 3080 3077 3073 3069 3065 3061 3057 3053 3048 3044 3039 3035 3031 3027 3023 3019 3015 3012 3008